sat.trackr.live / text

‹ back to catalog

HAIYANG-1C

NORAD 43609 · 2018-068A

PAYLOAD ACTIVE UNKNOWN

§ Identity

Operator
Country
PRC
Launch date
2018-09-07
Launch site
TAISC
Launch vehicle
Mass (kg)
RCS (m²)

External: N2YO · Heavens-Above · Gunter

§ Orbital elements

Epoch: 2026-05-25T03:39:17.749728Z

Period
100.41 min
Inclination
98.5190°
Eccentricity
0.0011319
Mean motion
14.34170449 rev/d
Perigee alt
769.7 km
Apogee alt
785.9 km
Semi-major
7,156.0 km
B*
1.5698e-5
RAAN
217.7923°
Arg perigee
157.2554°
Mean anomaly
202.9134°
Rev number
40,378

§ Raw data

HAIYANG-1C1 43609U 18068A   26145.15228877  .00000001  00000+0  15698-4 0  99962 43609  98.5190 217.7923 0011319 157.2554 202.9134 14.34170449403781

JSON: /api/v1/satellites/43609 · /tle

For live sub-satellite position, see the globe view (requires WebGL).

§ Visibility from observer

Set your observer location to see the next 7 days of passes ≥ 10°. The values pass through the URL so the page stays shareable.

No JS? Fill the form by hand. The geolocation button needs JavaScript.

§ Radio — SatNOGS DB

ModeDescriptionDownlinkUplink
FM S-band telemetry 2.210 GHz

1 transmitter · refreshed weekly from db.satnogs.org